Weather History for Miami, FL

Change the Weather History Date:

Saturday, September 7, 2013

  Actual Average Record
Temperature  
Mean Temperature 83 °F 83 °F  
Max Temperature 89 °F 90 °F 93 °F (1951)
Min Temperature 76 °F 77 °F 70 °F (1912)
Degree Days  
Heating Degree Days 0 0  
Month to date heating degree days 0 0  
Since 1 July heating degree days 0 0  
Cooling Degree Days 18 18  
Month to date cooling degree days 137 128  
Year to date cooling degree days 3274 3203  
Growing Degree Days 32 (Base 50)    
Moisture  
Dew Point 73 °F    
Average Humidity 71    
Maximum Humidity 87    
Minimum Humidity 55    
Precipitation  
Precipitation 0.03 in 0.32 in 2.33 in (1981)
Month to date precipitation 1.98 2.28  
Year to date precipitation 44.66 42.68  
Snow  
Snow 0.00 in - - ()
Month to date snowfall 0.0  
Since 1 July snowfall 0.0  
Since 1 September snowfall 0.0  
Snow Depth 0.00 in    
Sea Level Pressure  
Sea Level Pressure 29.96 in    
Wind  
Wind Speed 5 mph (NE)    
Max Wind Speed 13 mph    
Max Gust Speed 18 mph    
Visibility 10 miles    
Events Rain    
T = Trace of Precipitation, MM = Missing Value Source: NWS Daily Summary

Daily Weather History Graph

Daily Weather History Graph

Search for Another Location

Airport:

Trip Planner

Search our weather history database for the weather conditions in past years. The results will help you decide how hot, cold, wet, or windy it might be!

Date:

Astronomy

Sep. 07, 2013 Rise Set
Actual Time 7:04 AM EDT 7:33 PM EDT
Civil Twilight 6:40 AM EDT 7:57 PM EDT
Nautical Twilight 6:13 AM EDT 8:24 PM EDT
Astronomical Twilight 5:46 AM EDT 8:51 PM EDT
Moon 8:58 AM EDT (9/7) 8:52 PM EDT (9/7)
Length of Visible Light 13h 16m
Length of Day
12h 29m
Waxing Crescent, 5% of the Moon is Illuminated
Sep 7
Waxing Crescent
Sep 12
First Quarter
Sep 19
Full
Sep 26
Last Quarter
Oct 4
New

Hourly Weather History & Observations

Time (EDT) Temp. Heat Index Dew Point Humidity Pressure Visibility Wind Dir Wind Speed Gust Speed Precip Events Conditions
12:53 AM 82.9 °F 89.4 °F 73.9 °F 74% 29.98 in 10.0 mi East 3.5 mph - N/A   Overcast
1:53 AM 82.9 °F 90.2 °F 75.0 °F 77% 29.95 in 10.0 mi Calm Calm - N/A   Overcast
2:53 AM 82.9 °F 90.2 °F 75.0 °F 77% 29.94 in 10.0 mi NNE 3.5 mph - N/A   Overcast
3:53 AM 82.9 °F 90.2 °F 75.0 °F 77% 29.93 in 10.0 mi ENE 3.5 mph - N/A   Overcast
4:53 AM 82.9 °F 90.8 °F 75.9 °F 79% 29.93 in 10.0 mi NNE 4.6 mph - N/A   Overcast
5:53 AM 82.0 °F 89.4 °F 75.9 °F 82% 29.93 in 10.0 mi NE 4.6 mph - N/A   Overcast
6:53 AM 82.0 °F 89.4 °F 75.9 °F 82% 29.95 in 10.0 mi North 3.5 mph - N/A   Mostly Cloudy
7:53 AM 77.0 °F - 72.0 °F 84% 29.97 in 10.0 mi NE 11.5 mph - 0.01 in   Overcast
8:53 AM 75.9 °F - 71.1 °F 85% 30.00 in 10.0 mi NNE 5.8 mph - N/A   Mostly Cloudy
9:53 AM 75.9 °F - 73.0 °F 91% 29.99 in 10.0 mi East 6.9 mph - 0.02 in Rain Light Rain
10:53 AM 79.0 °F - 73.9 °F 84% 29.99 in 10.0 mi Calm Calm - 0.00 in   Mostly Cloudy
11:53 AM 82.9 °F 90.8 °F 75.9 °F 79% 30.01 in 10.0 mi SE 6.9 mph - N/A   Mostly Cloudy
12:53 PM 84.9 °F 92.1 °F 73.9 °F 69% 29.99 in 10.0 mi Calm Calm - N/A   Mostly Cloudy
1:53 PM 84.0 °F 90.2 °F 73.0 °F 69% 29.98 in 10.0 mi SSE 4.6 mph - N/A   Mostly Cloudy
2:53 PM 84.9 °F 90.7 °F 72.0 °F 65% 29.96 in 10.0 mi SE 4.6 mph - N/A   Overcast
3:53 PM 86.0 °F 91.5 °F 71.1 °F 61% 29.94 in 10.0 mi Variable 4.6 mph - N/A   Mostly Cloudy
4:53 PM 87.1 °F 92.0 °F 70.0 °F 57% 29.91 in 10.0 mi NNE 5.8 mph - N/A   Mostly Cloudy
5:53 PM 87.1 °F 92.0 °F 70.0 °F 57% 29.92 in 10.0 mi NE 8.1 mph - N/A   Mostly Cloudy
6:53 PM 84.0 °F 89.6 °F 72.0 °F 67% 29.91 in 10.0 mi ENE 8.1 mph - N/A   Mostly Cloudy
7:53 PM 82.9 °F 89.4 °F 73.9 °F 74% 29.94 in 10.0 mi NE 5.8 mph - N/A   Mostly Cloudy
8:53 PM 81.0 °F 85.8 °F 73.0 °F 77% 29.95 in 10.0 mi North 3.5 mph - N/A   Mostly Cloudy
9:53 PM 81.0 °F 85.8 °F 73.0 °F 77% 29.97 in 10.0 mi NNE 4.6 mph - N/A   Mostly Cloudy
10:53 PM 80.1 °F 84.2 °F 73.0 °F 79% 29.96 in 10.0 mi NNW 3.5 mph - N/A   Scattered Clouds
11:53 PM 79.0 °F - 72.0 °F 79% 29.95 in 10.0 mi NNE 3.5 mph - N/A   Scattered Clouds